Location: Kouchibouguac National Park
(46.8081°N, 64.9088°W)
Time: 14:59:42
(UTC-03:00)

Amateur Radio Satellites - All Passes

Search period start: 29 August 2016 14:29
Search period end: 30 August 2016 14:29
Location: Kouchibouguac National Park, 46.8081°N, 64.9088°W

Satellite Date Start Highest point End Downlink Frequencies (MHz)
Time Altitude Azimuth
ITAMSAT 1 29 Aug 14:30:30 14:35:07 34° 65° (ENE) 14:39:46 435.822/435.867
Gurwin Techsat 1B 29 Aug 14:36:52 14:42:11 76° 257° (WSW) 14:47:32 435.225
CUBEBUG 1 29 Aug 14:39:29 14:42:18 17° 299° (WNW) 14:45:04 437.445
VELOX 1 29 Aug 14:42:05 14:45:15 19° 298° (WNW) 14:48:22 145.980
SPROUT 29 Aug 14:47:32 14:51:06 26° 294° (WNW) 14:54:39 437.525
Oscar 19 29 Aug 14:51:52 14:56:17 28° 266° (W) 15:00:44 437.125/150
DX 1 29 Aug 14:52:47 14:56:03 21° 298° (WNW) 14:59:18 434.975-435.025
ITUPSAT 1 29 Aug 14:54:07 14:57:34 20° 92° (E) 15:01:00 437.325
TISAT 1 29 Aug 14:59:05 15:03:18 79° 285° (WNW) 15:07:28 437.305
ISS 29 Aug 15:04:16 15:07:23 41° 215° (SW) 15:10:30 145.825
PCSat 29 Aug 15:24:25 15:26:43 13° 337° (NNW) 15:29:03 145.827
AIST 2 29 Aug 15:25:08 15:26:33 11° 335° (NNW) 15:27:57 435.215
SWISSCUBE 29 Aug 15:25:23 15:29:56 42° 99° (E) 15:34:26 437.505
O/OREOS (USA 219) 29 Aug 15:30:12 15:34:14 31° 305° (NW) 15:38:19 437.305
UKube-1 29 Aug 15:30:53 15:32:32 12° 303° (WNW) 15:34:10 .
AO-85 29 Aug 15:35:22 15:37:58 16° 250° (WSW) 15:40:27 145.980
BEESAT 29 Aug 15:42:12 15:46:54 55° 101° (E) 15:51:34 436.000
Cosmos 2499 29 Aug 15:49:46 15:51:50 11° 308° (NW) 15:53:53 435.465 / 435.565
AO-7 29 Aug 15:54:30 16:02:53 90° 355° (N) 16:11:18 29.400- 29.500
YUBILEINY 29 Aug 15:58:15 16:04:14 20° 55° (NE) 16:10:10 435.215
ITAMSAT 1 29 Aug 16:09:49 16:14:33 36° 263° (W) 16:19:19 435.822/435.867
Gurwin Techsat 1B 29 Aug 16:21:54 16:23:02 11° 275° (W) 16:24:10 435.225
ITUPSAT 1 29 Aug 16:31:04 16:35:43 54° 290° (WNW) 16:40:22 437.325
BEESAT 3 29 Aug 16:31:22 16:33:17 13° 30° (NNE) 16:35:13 437.485
NOAA 18 29 Aug 16:45:52 16:47:08 11° 50° (NE) 16:48:25 137.9125
BRITE-PL 29 Aug 16:50:46 16:54:25 20° 59° (ENE) 16:58:14 437.365/2234.400
Cosmos 2504 29 Aug 16:54:50 16:57:33 12° 52° (NE) 17:00:14 435.465 / 435.565
KKS-1 29 Aug 16:55:18 16:59:27 37° 98° (E) 17:03:34 437.445
SWISSCUBE 29 Aug 17:03:36 17:07:31 26° 297° (WNW) 17:11:25 437.505
Cubesat XI-IV 29 Aug 17:15:00 17:18:33 18° 58° (ENE) 17:22:06 437.490
MOZHAYETS 4 29 Aug 17:15:17 17:19:53 79° 103° (ESE) 17:24:29
HORYU 2 29 Aug 17:17:59 17:22:25 71° 74° (ENE) 17:26:52 437.375
NOAA 15 29 Aug 17:20:03 17:24:13 25° 61° (ENE) 17:28:25 137.62
BEESAT 29 Aug 17:20:49 17:24:19 21° 299° (WNW) 17:27:48 436.000
CUTE-I 29 Aug 17:25:38 17:29:38 22° 60° (ENE) 17:33:39 437.470
STARS 29 Aug 17:25:41 17:29:48 37° 98° (E) 17:33:52 437.465
Cosmos 2491 29 Aug 17:40:26 17:47:46 32° 82° (E) 17:55:07 435.465 / 435.565
AO-7 29 Aug 17:50:42 17:56:43 22° 270° (W) 18:02:47 29.400- 29.500
DOVE 4 29 Aug 17:51:17 17:54:42 18° 58° (ENE) 17:58:07 437.250
GOMX 1 29 Aug 17:53:19 17:57:58 34° 65° (ENE) 18:02:49 467.674
HO-68 29 Aug 17:53:31 17:56:32 13° 43° (NE) 17:59:33 435.675
YUBILEINY 29 Aug 17:53:53 18:02:44 78° 80° (E) 18:11:27 435.215
BEESAT 2 29 Aug 17:54:01 17:57:32 29° 42° (NE) 18:01:03 435.950
BEESAT 3 29 Aug 18:07:48 18:11:45 62° 51° (NE) 18:15:41 437.485
LilacSat-2 29 Aug 18:11:30 18:15:05 39° 71° (ENE) 18:18:40 437.200
NOAA 18 29 Aug 18:21:17 18:26:41 57° 69° (ENE) 18:32:06 137.9125
BRITE-PL 29 Aug 18:27:21 18:32:17 67° 259° (W) 18:37:40 437.365/2234.400
KKS-1 29 Aug 18:32:10 18:35:52 26° 295° (WNW) 18:39:33 437.445
CUBESAT XI-V 29 Aug 18:40:47 18:45:32 80° 104° (ESE) 18:50:14 437.345
Cosmos 2504 29 Aug 18:45:35 18:52:48 61° 77° (ENE) 18:59:51 435.465 / 435.565
AIST 2 29 Aug 18:46:30 18:47:37 11° 24° (NNE) 18:48:44 435.215
Cubesat XI-IV 29 Aug 18:52:40 18:58:02 77° 256° (WSW) 19:03:23 437.490
MOZHAYETS 4 29 Aug 18:54:01 18:56:28 14° 301° (WNW) 18:58:54
PCSat 29 Aug 18:55:20 18:58:46 17° 30° (NNE) 19:02:11 145.827
HORYU 2 29 Aug 18:57:19 18:59:28 13° 271° (W) 19:01:37 437.375
NOAA 15 29 Aug 18:58:31 19:03:39 54° 259° (W) 19:08:51 137.62
STARS 29 Aug 19:02:23 19:05:59 25° 296° (WNW) 19:09:32 437.465
CUTE-I 29 Aug 19:03:59 19:09:15 62° 258° (WSW) 19:14:33 437.470
STRAND 1 29 Aug 19:15:48 19:17:29 12° 86° (E) 19:19:11 437.568
DOVE 4 29 Aug 19:26:28 19:31:42 81° 257° (WSW) 19:37:04 437.250
GOMX 1 29 Aug 19:31:07 19:35:56 39° 265° (W) 19:41:00 467.674
BEESAT 2 29 Aug 19:31:43 19:35:27 37° 241° (WSW) 19:39:09 435.950
Cosmos 2491 29 Aug 19:35:21 19:43:59 65° 283° (WNW) 19:52:45 435.465 / 435.565
HO-68 29 Aug 19:35:47 19:42:40 52° 65° (ENE) 19:49:36 435.675
SEEDS 29 Aug 19:36:34 19:39:42 21° 64° (ENE) 19:42:51 437.485
AIST 1 29 Aug 19:36:38 19:39:33 17° 67° (ENE) 19:42:29
BEESAT 3 29 Aug 19:46:39 19:48:58 15° 249° (WSW) 19:51:17 437.485
LilacSat-2 29 Aug 19:46:53 19:49:33 18° 268° (W) 19:52:13 437.200
UWE-3 29 Aug 19:51:50 19:53:57 13° 60° (ENE) 19:56:05 435.000/436.395/437.385
YUBILEINY 29 Aug 19:51:52 19:58:34 26° 281° (W) 20:05:15 435.215
CINEMA 3 29 Aug 19:52:03 19:56:58 58° 72° (ENE) 20:01:49 145.822/145.860
CUBEBUG 2 29 Aug 19:57:11 20:00:40 21° 64° (ENE) 20:04:05 437.445
CANX-2 29 Aug 20:01:19 20:05:27 58° 72° (ENE) 20:09:35 2200.000
AAUSAT CUBESAT 2 29 Aug 20:01:29 20:04:36 21° 65° (ENE) 20:07:45 437.432
ZACube-1 29 Aug 20:02:38 20:03:44 11° 58° (ENE) 20:04:49 437.345
NOAA 18 29 Aug 20:03:20 20:07:42 23° 267° (W) 20:12:04 137.9125
CUTE 1.7 + AOD 2 29 Aug 20:06:59 20:11:06 58° 73° (ENE) 20:15:15 437.475
COMPASS 1 29 Aug 20:11:03 20:14:44 32° 69° (ENE) 20:18:26 437.405
CUBESAT XI-V 29 Aug 20:19:41 20:22:17 15° 301° (WNW) 20:24:54 437.345
AIST 2 29 Aug 20:23:14 20:27:13 40° 46° (NE) 20:31:11 435.215
Cubesat XI-IV 29 Aug 20:37:37 20:38:59 11° 275° (W) 20:40:21 437.490
PCSat 29 Aug 20:37:54 20:43:18 61° 53° (NE) 20:48:40 145.827
Cosmos 2504 29 Aug 20:39:48 20:45:36 27° 278° (W) 20:51:20 435.465 / 435.565
STRAND 1 29 Aug 20:52:18 20:57:27 85° 105° (ESE) 21:02:33 437.568
Oscar 11 29 Aug 21:02:07 21:06:06 38° 69° (ENE) 21:10:06 145.826/435.025
DOVE 4 29 Aug 21:08:18 21:10:12 12° 276° (W) 21:12:09 437.250
SEEDS 29 Aug 21:11:14 21:15:10 40° 262° (W) 21:19:07 437.485
FUNcube-1 29 Aug 21:12:23 21:16:36 46° 71° (ENE) 21:20:44 145.935
AIST 1 29 Aug 21:13:13 21:17:31 53° 266° (W) 21:21:47
DELFI C3 29 Aug 21:21:30 21:24:45 25° 67° (ENE) 21:28:01 145.870
HO-68 29 Aug 21:24:06 21:30:36 36° 264° (W) 21:37:10 435.675
UWE-3 29 Aug 21:25:17 21:29:50 82° 256° (WSW) 21:34:18 435.000/436.395/437.385
CINEMA 3 29 Aug 21:30:50 21:34:25 20° 269° (W) 21:38:00 145.822/145.860
CUBEBUG 2 29 Aug 21:32:29 21:37:00 49° 261° (W) 21:41:25 437.445
ZACube-1 29 Aug 21:34:54 21:39:21 83° 73° (ENE) 21:43:42 437.345
AAUSAT CUBESAT 2 29 Aug 21:36:01 21:39:52 39° 263° (W) 21:43:45 437.432
Cosmos 2491 29 Aug 21:37:58 21:42:56 16° 309° (NW) 21:47:57 435.465 / 435.565
CANX-2 29 Aug 21:39:21 21:41:41 14° 270° (W) 21:44:02 2200.000
CUTE 1.7 + AOD 2 29 Aug 21:45:01 21:47:20 14° 271° (W) 21:49:40 437.475
Cosmos 2499 29 Aug 21:45:21 21:48:20 13° 54° (NE) 21:51:17 435.465 / 435.565
COMPASS 1 29 Aug 21:46:56 21:50:20 25° 266° (W) 21:53:46 437.405
AUBIESAT-1 29 Aug 21:49:55 21:52:27 15° 53° (NE) 21:54:57 437.475
M-CUBED/EXP-1 PRIME 29 Aug 21:56:34 21:59:56 20° 56° (NE) 22:03:18 437.505
AIST 2 29 Aug 22:02:01 22:05:33 26° 245° (WSW) 22:09:03 435.215
HUMSAT D 29 Aug 22:02:12 22:05:59 35° 69° (ENE) 22:09:44 437.325/437.525
GONETS M04 29 Aug 22:09:34 22:17:05 30° 63° (ENE) 22:24:33
PRISM 29 Aug 22:12:08 22:16:20 71° 102° (ESE) 22:20:30 437.425
O/OREOS (USA 219) 29 Aug 22:19:01 22:21:58 17° 47° (NE) 22:24:55 437.305
PCSat 29 Aug 22:22:04 22:26:17 23° 252° (WSW) 22:30:29 145.827
CUBEBUG 1 29 Aug 22:29:08 22:29:20 10° 55° (NE) 22:29:32 437.445
STRAND 1 29 Aug 22:32:57 22:35:57 16° 303° (WNW) 22:38:57 437.568
SO-50 29 Aug 22:34:49 22:36:19 11° 107° (ESE) 22:37:48 436.795
Oscar 11 29 Aug 22:38:58 22:42:22 23° 267° (W) 22:45:47 145.826/435.025
ANTELSAT 29 Aug 22:43:43 22:46:40 18° 91° (E) 22:49:36 437.575/2403.000
FUNcube-1 29 Aug 22:49:51 22:53:03 20° 268° (W) 22:56:14 145.935
DELFI C3 29 Aug 22:56:03 22:59:30 29° 264° (W) 23:03:00 145.870
50 SAT 29 Aug 23:08:21 23:10:28 15° 63° (ENE) 23:12:35 437.505
TIGRISAT 29 Aug 23:13:18 23:17:13 33° 97° (E) 23:21:04 435.000
ZACube-1 29 Aug 23:15:00 23:16:10 11° 272° (W) 23:17:21 437.345
UKube-1 29 Aug 23:16:24 23:18:36 14° 59° (ENE) 23:20:50 .
AISAT 29 Aug 23:18:17 23:21:58 26° 65° (ENE) 23:25:41 437.250
ESTCUBE 1 29 Aug 23:18:58 23:23:11 42° 69° (ENE) 23:27:27 437.505/2401.250
AUBIESAT-1 29 Aug 23:21:36 23:26:16 90° 295° (WNW) 23:30:53 437.475
RS-15 29 Aug 23:23:59 23:26:35 11° 89° (E) 23:29:14 29.354- 29.394
M-CUBED/EXP-1 PRIME 29 Aug 23:29:20 23:34:00 65° 253° (WSW) 23:38:41 437.505
Cosmos 2499 29 Aug 23:36:04 23:43:06 65° 77° (ENE) 23:50:11 435.465 / 435.565
HUMSAT D 29 Aug 23:38:23 23:41:42 23° 266° (W) 23:45:00 437.325/437.525
UNISAT 6 29 Aug 23:42:29 23:46:48 73° 102° (ESE) 23:51:03 437.425
QB50P1 29 Aug 23:48:41 23:50:44 13° 89° (E) 23:52:47 145.935-145.965
PRISM 29 Aug 23:48:58 23:51:06 14° 301° (WNW) 23:53:15 437.425
CUSAT 1 29 Aug 23:51:23 23:54:27 58° 97° (E) 23:58:26 437.405
O/OREOS (USA 219) 29 Aug 23:57:21 00:01:58 79° 247° (WSW) 00:06:34 437.305
POPSAT HIP 1 29 Aug 23:58:23 00:01:07 17° 91° (E) 00:03:49 437.405
CUBEBUG 1 30 Aug 00:00:24 00:04:48 74° 73° (ENE) 00:09:15 437.445
VELOX 1 30 Aug 00:04:29 00:08:53 68° 74° (ENE) 00:13:21 145.980
GONETS M04 30 Aug 00:05:56 00:14:47 73° 266° (W) 00:23:33
SPROUT 30 Aug 00:07:25 00:11:24 37° 69° (ENE) 00:15:24 437.525
SO-50 30 Aug 00:11:10 00:16:01 77° 125° (SE) 00:20:50 436.795
DX 1 30 Aug 00:13:52 00:18:09 59° 72° (ENE) 00:22:30 434.975-435.025
ANTELSAT 30 Aug 00:19:32 00:23:40 47° 289° (WNW) 00:27:45 437.575/2403.000
TISAT 1 30 Aug 00:20:04 00:22:12 14° 59° (ENE) 00:24:20 437.305
JAS-2 30 Aug 00:20:35 00:26:09 25° 91° (E) 00:32:05 435.910
DUCHIFAT 1 30 Aug 00:22:38 00:26:12 26° 95° (E) 00:29:43 145.980
QB50P2 30 Aug 00:28:32 00:32:27 36° 97° (E) 00:36:20 145.880/145.840
POLYITAN 1 30 Aug 00:31:02 00:34:57 36° 97° (E) 00:38:50 437.675
NANOSAT C BR1 30 Aug 00:37:22 00:41:21 39° 98° (E) 00:45:16 145.865
50 SAT 30 Aug 00:40:17 00:43:42 44° 261° (W) 00:47:10 437.505
UKube-1 30 Aug 00:49:46 00:54:05 76° 257° (WSW) 00:58:27 .
TIGRISAT 30 Aug 00:50:15 00:53:48 26° 295° (WNW) 00:57:19 435.000
AISAT 30 Aug 00:54:08 00:58:17 37° 263° (W) 01:02:28 437.250
ESTCUBE 1 30 Aug 00:56:41 01:00:11 22° 267° (W) 01:03:42 437.505/2401.250
AUBIESAT-1 30 Aug 00:59:33 01:01:16 12° 267° (W) 01:02:58 437.475
SWISSCUBE 30 Aug 01:01:31 01:02:15 10° 54° (NE) 01:02:58 437.505
BUGSAT 1 30 Aug 01:07:50 01:11:38 34° 97° (E) 01:15:21 437.445
DANDE 30 Aug 01:11:21 01:13:55 43° 286° (WNW) 01:16:52 436.750
BEESAT 30 Aug 01:16:44 01:18:55 13° 56° (ENE) 01:21:08 436.000
UNISAT 6 30 Aug 01:20:49 01:22:57 14° 301° (WNW) 01:25:05 437.425
Oscar 19 30 Aug 01:22:43 01:24:27 11° 86° (E) 01:26:09 437.125/150
QB50P1 30 Aug 01:22:46 01:26:58 64° 287° (WNW) 01:31:07 145.935-145.965
RS-15 30 Aug 01:24:47 01:35:48 54° 113° (ESE) 01:47:22 29.354- 29.394
Cosmos 2499 30 Aug 01:30:09 01:35:36 25° 278° (W) 01:41:05 435.465 / 435.565
POPSAT HIP 1 30 Aug 01:33:06 01:37:13 51° 288° (WNW) 01:41:16 437.405
CUSAT 1 30 Aug 01:36:38 01:37:22 10° 305° (NW) 01:38:09 437.405
CUBEBUG 1 30 Aug 01:39:40 01:41:37 13° 272° (W) 01:43:34 437.445
VELOX 1 30 Aug 01:43:30 01:45:50 14° 271° (W) 01:48:11 145.980
SPROUT 30 Aug 01:43:59 01:47:27 23° 267° (W) 01:50:56 437.525
DX 1 30 Aug 01:52:07 01:54:44 15° 269° (W) 01:57:23 434.975-435.025
TISAT 1 30 Aug 01:53:02 01:57:17 74° 257° (WSW) 02:01:34 437.305
SO-50 30 Aug 01:53:09 01:57:01 23° 325° (NW) 02:00:51 436.795
DUCHIFAT 1 30 Aug 01:58:10 02:01:55 32° 292° (WNW) 02:05:37 145.980
ITUPSAT 1 30 Aug 02:03:22 02:07:34 32° 65° (ENE) 02:11:46 437.325
QB50P2 30 Aug 02:04:41 02:08:05 24° 295° (WNW) 02:11:29 145.880/145.840
JAS-2 30 Aug 02:04:50 02:11:37 74° 288° (WNW) 02:19:09 435.910
GONETS M04 30 Aug 02:05:09 02:09:56 16° 288° (WNW) 02:14:44
POLYITAN 1 30 Aug 02:07:12 02:10:35 24° 295° (WNW) 02:13:57 437.675
NANOSAT C BR1 30 Aug 02:13:36 02:16:51 22° 296° (WNW) 02:20:05 145.865
SWISSCUBE 30 Aug 02:34:26 02:39:09 68° 72° (ENE) 02:43:53 437.505
BUGSAT 1 30 Aug 02:43:30 02:46:51 24° 295° (WNW) 02:50:10 437.445
PHONESAT 2.4 30 Aug 02:43:42 02:46:01 20° 169° (S) 02:48:20 2401.200-2431.200
MOZHAYETS 4 30 Aug 02:45:24 02:47:45 14° 59° (ENE) 02:50:05
Gurwin Techsat 1B 30 Aug 02:50:19 02:55:09 34° 96° (E) 02:59:58 435.225
BEESAT 30 Aug 02:51:14 02:56:00 88° 74° (ENE) 03:00:47 436.000
Oscar 19 30 Aug 02:59:19 03:04:35 83° 104° (ESE) 03:09:47 437.125/150
RS-15 30 Aug 03:36:42 03:48:17 60° 319° (NW) 04:00:27 29.354- 29.394
ITUPSAT 1 30 Aug 03:41:04 03:45:21 33° 263° (W) 03:49:40 437.325
Cosmos 2491 30 Aug 03:46:14 03:52:12 19° 55° (NE) 03:58:10 435.465 / 435.565
JAS-2 30 Aug 03:51:33 03:55:45 18° 306° (NW) 04:00:13 435.910
AO-7 30 Aug 03:53:42 04:00:14 25° 92° (E) 04:06:43 29.400- 29.500
KKS-1 30 Aug 03:55:47 04:00:06 49° 70° (ENE) 04:04:27 437.445
CUBESAT XI-V 30 Aug 04:12:00 04:14:32 15° 59° (ENE) 04:17:03 437.345
AO-85 30 Aug 04:13:08 04:15:02 12° 108° (ESE) 04:16:55 145.980
SWISSCUBE 30 Aug 04:14:38 04:17:26 15° 270° (W) 04:20:13 437.505
ITAMSAT 1 30 Aug 04:18:58 04:24:08 64° 102° (ESE) 04:29:16 435.822/435.867
PHONESAT 2.4 30 Aug 04:19:25 04:21:53 23° 186° (S) 04:24:20 2401.200-2431.200
MOZHAYETS 4 30 Aug 04:19:44 04:24:18 80° 258° (WSW) 04:28:53
STARS 30 Aug 04:24:44 04:29:00 49° 70° (ENE) 04:33:17 437.465
Gurwin Techsat 1B 30 Aug 04:30:16 04:35:07 37° 294° (WNW) 04:39:56 435.225
BEESAT 30 Aug 04:32:46 04:34:27 12° 273° (W) 04:36:07 436.000
Oscar 19 30 Aug 04:40:01 04:43:14 17° 303° (WNW) 04:46:26 437.125/150
YUBILEINY 30 Aug 05:05:46 05:11:10 18° 74° (ENE) 05:16:36 435.215
HORYU 2 30 Aug 05:08:44 05:09:36 10° 88° (E) 05:10:28 437.375
SO-50 30 Aug 05:21:07 05:22:00 10° 14° (NNE) 05:22:52 436.795
KKS-1 30 Aug 05:33:41 05:36:56 19° 268° (W) 05:40:12 437.445
Cosmos 2491 30 Aug 05:41:53 05:50:46 76° 79° (E) 05:59:37 435.465 / 435.565
AO-7 30 Aug 05:45:33 05:53:54 81° 292° (WNW) 06:02:10 29.400- 29.500
CUBESAT XI-V 30 Aug 05:46:42 05:51:18 78° 258° (WSW) 05:55:58 437.345
AO-85 30 Aug 05:49:32 05:54:48 74° 124° (SE) 05:59:45 145.980
RS-15 30 Aug 05:53:19 06:03:59 34° 351° (N) 06:14:55 29.354- 29.394
PHONESAT 2.4 30 Aug 05:56:24 05:57:37 12° 202° (SSW) 05:58:49 2401.200-2431.200
ITAMSAT 1 30 Aug 05:59:23 06:03:09 21° 301° (WNW) 06:06:54 435.822/435.867
STARS 30 Aug 06:02:27 06:05:38 19° 268° (W) 06:08:49 437.465
BRITE-PL 30 Aug 06:29:05 06:34:24 38° 95° (E) 06:39:34 437.365/2234.400
STRAND 1 30 Aug 06:33:20 06:37:24 24° 62° (ENE) 06:41:27 437.568
NOAA 18 30 Aug 06:41:22 06:45:04 18° 90° (E) 06:48:44 137.9125
HORYU 2 30 Aug 06:42:20 06:46:47 86° 290° (WNW) 06:51:12 437.375
YUBILEINY 30 Aug 06:57:41 07:06:30 80° 97° (E) 07:15:22 435.215
SO-50 30 Aug 07:00:04 07:04:05 27° 38° (NE) 07:08:00 436.795
Cubesat XI-IV 30 Aug 07:07:10 07:11:59 34° 96° (E) 07:16:47 437.490
NOAA 15 30 Aug 07:10:31 07:15:38 45° 99° (E) 07:20:43 137.62
LilacSat-2 30 Aug 07:16:01 07:19:34 38° 98° (E) 07:23:06 437.200
CUTE-I 30 Aug 07:18:02 07:23:05 42° 98° (E) 07:28:05 437.470
DOVE 4 30 Aug 07:23:31 07:27:37 24° 91° (E) 07:31:31 437.250
Cosmos 2504 30 Aug 07:26:33 07:34:26 49° 90° (E) 07:41:48 435.465 / 435.565
GOMX 1 30 Aug 07:29:42 07:35:05 60° 100° (E) 07:40:09 467.674
AO-85 30 Aug 07:31:31 07:35:44 25° 323° (NW) 07:39:43 145.980
AO-7 30 Aug 07:39:26 07:45:31 23° 314° (NW) 07:51:34 29.400- 29.500
Cosmos 2491 30 Aug 07:39:50 07:46:42 26° 281° (W) 07:53:35 435.465 / 435.565
CINEMA 3 30 Aug 07:47:20 07:47:53 10° 85° (E) 07:48:25 145.822/145.860
ISS 30 Aug 07:47:22 07:48:49 12° 133° (SE) 07:50:16 145.825
BRITE-PL 30 Aug 08:07:36 08:12:49 38° 294° (WNW) 08:17:55 437.365/2234.400
RS-15 30 Aug 08:09:16 08:20:42 41° 25° (NNE) 08:32:10 29.354- 29.394
STRAND 1 30 Aug 08:11:19 08:16:16 51° 260° (W) 08:21:15 437.568
NOAA 18 30 Aug 08:20:48 08:26:16 71° 289° (WNW) 08:31:41 137.9125
HORYU 2 30 Aug 08:21:06 08:22:38 12° 304° (WNW) 08:24:11 437.375
CUSAT 1 30 Aug 08:38:05 08:41:35 15° 59° (ENE) 08:45:23 437.405
SO-50 30 Aug 08:40:20 08:44:50 53° 239° (WSW) 08:49:13 436.795
Cubesat XI-IV 30 Aug 08:47:13 08:52:05 37° 294° (WNW) 08:56:56 437.490
HO-68 30 Aug 08:47:41 08:54:23 40° 97° (E) 09:01:01 435.675
NOAA 15 30 Aug 08:50:41 08:55:12 29° 297° (WNW) 08:59:43 137.62
LilacSat-2 30 Aug 08:50:59 08:53:37 18° 295° (WNW) 08:56:16 437.200
SEEDS 30 Aug 08:52:10 08:55:44 26° 94° (E) 08:59:17 437.485
YUBILEINY 30 Aug 08:57:13 09:04:23 27° 299° (WNW) 09:11:34 435.215
CUTE-I 30 Aug 08:58:23 09:02:59 31° 296° (WNW) 09:07:34 437.470
DOVE 4 30 Aug 09:00:43 09:05:33 45° 291° (WNW) 09:10:05 437.250
PRISM 30 Aug 09:03:59 09:08:04 74° 75° (ENE) 09:12:13 437.425
GOMX 1 30 Aug 09:08:31 09:12:41 23° 299° (WNW) 09:16:43 467.674
UNISAT 6 30 Aug 09:10:16 09:12:07 12° 58° (ENE) 09:13:57 437.425
UWE-3 30 Aug 09:13:21 09:15:50 15° 90° (E) 09:18:17 435.000/436.395/437.385
AAUSAT CUBESAT 2 30 Aug 09:15:19 09:18:50 25° 94° (E) 09:22:19 437.432
CANX-2 30 Aug 09:18:57 09:23:14 80° 104° (ESE) 09:27:28 2200.000
Cosmos 2504 30 Aug 09:20:17 09:27:56 40° 289° (WNW) 09:35:09 435.465 / 435.565
CUBEBUG 2 30 Aug 09:20:48 09:24:24 27° 94° (E) 09:27:56 437.445
CINEMA 3 30 Aug 09:21:13 09:25:47 87° 281° (W) 09:30:05 145.822/145.860
ISS 30 Aug 09:21:31 09:24:46 72° 152° (SSE) 09:28:04 145.825
ZACube-1 30 Aug 09:22:16 09:23:56 12° 88° (E) 09:25:34 437.345
CUTE 1.7 + AOD 2 30 Aug 09:24:30 09:28:46 80° 104° (ESE) 09:33:01 437.475
COMPASS 1 30 Aug 09:25:52 09:29:51 41° 98° (E) 09:33:49 437.405
BEESAT 2 30 Aug 09:27:00 09:29:38 17° 112° (ESE) 09:32:16 435.950
BEESAT 3 30 Aug 09:38:09 09:41:49 40° 120° (ESE) 09:45:32 437.485
AIST 1 30 Aug 09:44:54 09:49:15 77° 97° (E) 09:53:40
ANTELSAT 30 Aug 09:44:56 09:48:38 25° 65° (ENE) 09:52:16 437.575/2403.000
DANDE 30 Aug 10:00:12 10:04:22 21° 68° (ENE) 10:09:18 436.750
NOAA 18 30 Aug 10:03:34 10:05:59 13° 308° (NW) 10:08:24 137.9125
TIGRISAT 30 Aug 10:14:17 10:18:37 44° 70° (ENE) 10:22:52 435.000
CUSAT 1 30 Aug 10:18:04 10:24:32 65° 77° (ENE) 10:32:14 437.405
Oscar 11 30 Aug 10:22:00 10:26:14 52° 100° (E) 10:30:27 145.826/435.025
RS-15 30 Aug 10:22:36 10:35:04 87° 54° (NE) 10:47:20 29.354- 29.394
SEEDS 30 Aug 10:27:42 10:31:27 32° 292° (WNW) 10:35:13 437.485
DELFI C3 30 Aug 10:30:18 10:33:45 27° 95° (E) 10:37:12 145.870
FUNcube-1 30 Aug 10:33:24 10:37:32 64° 101° (E) 10:41:38 145.935
HO-68 30 Aug 10:35:25 10:42:11 47° 297° (WNW) 10:48:55 435.675
JAS-2 30 Aug 10:40:08 10:42:13 12° 49° (NE) 10:44:21 435.910
PRISM 30 Aug 10:42:41 10:43:54 11° 271° (W) 10:45:08 437.425
UNISAT 6 30 Aug 10:43:36 10:48:11 90° 53° (NE) 10:52:41 437.425
QB50P1 30 Aug 10:43:50 10:46:28 16° 61° (ENE) 10:49:05 145.935-145.965
UWE-3 30 Aug 10:48:34 10:52:40 53° 288° (WNW) 10:56:41 435.000/436.395/437.385
AAUSAT CUBESAT 2 30 Aug 10:50:37 10:54:20 32° 292° (WNW) 10:58:03 437.432
POPSAT HIP 1 30 Aug 10:53:37 10:56:41 20° 63° (ENE) 10:59:45 437.405
ZACube-1 30 Aug 10:56:34 11:00:43 67° 285° (WNW) 11:04:48 437.345
CANX-2 30 Aug 10:56:40 10:58:28 13° 301° (WNW) 11:00:17 2200.000
CUBEBUG 2 30 Aug 10:57:20 11:01:04 30° 293° (WNW) 11:04:42 437.445
ISS 30 Aug 10:58:19 11:01:26 38° 350° (N) 11:04:33 145.825
CINEMA 3 30 Aug 11:00:34 11:02:07 12° 304° (WNW) 11:03:39 145.822/145.860
COMPASS 1 30 Aug 11:01:59 11:05:10 21° 295° (WNW) 11:08:20 437.405
CUTE 1.7 + AOD 2 30 Aug 11:02:11 11:04:01 13° 301° (WNW) 11:05:49 437.475
BEESAT 2 30 Aug 11:03:10 11:07:04 55° 310° (NW) 11:11:00 435.950
GONETS M04 30 Aug 11:15:32 11:22:38 29° 80° (E) 11:29:47
BEESAT 3 30 Aug 11:16:16 11:19:37 26° 319° (NW) 11:23:00 437.485
DUCHIFAT 1 30 Aug 11:17:07 11:20:47 29° 67° (ENE) 11:24:27 145.980
HUMSAT D 30 Aug 11:17:44 11:21:39 43° 98° (E) 11:25:34 437.325/437.525
ANTELSAT 30 Aug 11:20:53 11:25:10 39° 262° (W) 11:29:24 437.575/2403.000
PCSat 30 Aug 11:23:00 11:27:37 30° 110° (ESE) 11:32:16 145.827
QB50P2 30 Aug 11:23:39 11:27:38 39° 69° (ENE) 11:31:37 145.880/145.840
AIST 1 30 Aug 11:25:37 11:27:28 12° 297° (WNW) 11:29:19
POLYITAN 1 30 Aug 11:26:09 11:30:08 40° 70° (ENE) 11:34:09 437.675
NANOSAT C BR1 30 Aug 11:31:57 11:35:59 43° 70° (ENE) 11:40:01 145.865
DANDE 30 Aug 11:41:52 11:47:21 73° 261° (W) 11:54:31 436.750
CUBEBUG 1 30 Aug 11:48:25 11:49:47 11° 87° (E) 11:51:09 437.445
TIGRISAT 30 Aug 11:51:57 11:55:29 22° 267° (W) 11:58:59 435.000
VELOX 1 30 Aug 11:54:36 11:55:18 10° 87° (E) 11:56:01 145.980
Oscar 11 30 Aug 11:59:03 12:02:00 18° 298° (WNW) 12:04:57 145.826/435.025
BUGSAT 1 30 Aug 11:59:58 12:03:51 36° 69° (ENE) 12:07:45 437.445
CUSAT 1 30 Aug 12:00:45 12:06:16 29° 271° (W) 12:12:33 437.405
AIST 2 30 Aug 12:01:44 12:05:18 30° 117° (ESE) 12:08:57 435.215
DELFI C3 30 Aug 12:05:07 12:08:34 28° 293° (WNW) 12:12:01 145.870
50 SAT 30 Aug 12:07:08 12:08:30 12° 90° (E) 12:09:52 437.505
FUNcube-1 30 Aug 12:11:04 12:13:18 14° 299° (WNW) 12:15:32 145.935
Cosmos 2499 30 Aug 12:15:32 12:23:09 49° 90° (E) 12:30:14 435.465 / 435.565
QB50P1 30 Aug 12:17:34 12:21:48 60° 259° (W) 12:26:02 145.935-145.965
JAS-2 30 Aug 12:20:53 12:26:05 68° 72° (ENE) 12:31:49 435.910
UNISAT 6 30 Aug 12:24:37 12:25:30 10° 273° (W) 12:26:24 437.425
HO-68 30 Aug 12:25:55 12:28:12 12° 319° (NW) 12:30:28 435.675
POPSAT HIP 1 30 Aug 12:28:01 12:32:09 47° 261° (W) 12:36:18 437.405
AUBIESAT-1 30 Aug 12:32:46 12:36:34 39° 103° (ESE) 12:40:04 437.475
ISS 30 Aug 12:35:16 12:38:23 38° 10° (N) 12:41:29 145.825
UKube-1 30 Aug 12:35:17 12:37:43 15° 90° (E) 12:40:08 .
RS-15 30 Aug 12:36:10 12:46:10 31° 258° (WSW) 12:56:03 29.354- 29.394
Gurwin Techsat 1B 30 Aug 12:38:12 12:40:23 13° 53° (NE) 12:42:33 435.225
AO-85 30 Aug 12:39:11 12:42:47 23° 36° (NE) 12:46:10 145.980
M-CUBED/EXP-1 PRIME 30 Aug 12:40:55 12:45:00 60° 106° (ESE) 12:48:45 437.505
AISAT 30 Aug 12:41:10 12:45:12 33° 96° (E) 12:49:13 437.250
Oscar 19 30 Aug 12:41:10 12:45:17 25° 62° (ENE) 12:49:25 437.125/150
BEESAT 2 30 Aug 12:44:06 12:45:46 12° 332° (NNW) 12:47:27 435.950
ESTCUBE 1 30 Aug 12:44:48 12:49:20 63° 102° (ESE) 12:53:50 437.505/2401.250
DUCHIFAT 1 30 Aug 12:52:41 12:56:26 30° 264° (W) 13:00:11 145.980
HUMSAT D 30 Aug 12:54:05 12:57:01 19° 296° (WNW) 12:59:57 437.325/437.525
QB50P2 30 Aug 13:00:16 13:03:35 22° 267° (W) 13:06:55 145.880/145.840
POLYITAN 1 30 Aug 13:02:48 13:06:06 21° 267° (W) 13:09:24 437.675
PCSat 30 Aug 13:05:32 13:10:47 50° 309° (NW) 13:16:05 145.827
AO-7 30 Aug 13:08:45 13:12:32 14° 36° (NE) 13:16:19 29.400- 29.500
NANOSAT C BR1 30 Aug 13:08:45 13:11:54 20° 268° (W) 13:15:04 145.865
GONETS M04 30 Aug 13:09:57 13:18:42 71° 282° (WNW) 13:27:33
CUBEBUG 1 30 Aug 13:22:12 13:26:40 82° 285° (WNW) 13:31:05 437.445
SPROUT 30 Aug 13:25:54 13:30:05 47° 99° (E) 13:34:12 437.525
DANDE 30 Aug 13:27:15 13:29:39 13° 275° (W) 13:32:16 436.750
VELOX 1 30 Aug 13:27:56 13:32:26 89° 294° (WNW) 13:36:53 145.980
DX 1 30 Aug 13:35:04 13:39:29 75° 102° (ESE) 13:43:51 434.975-435.025
TISAT 1 30 Aug 13:35:31 13:37:43 14° 90° (E) 13:39:56 437.305
BUGSAT 1 30 Aug 13:35:51 13:39:18 24° 266° (W) 13:42:46 437.445
50 SAT 30 Aug 13:38:50 13:42:25 55° 287° (WNW) 13:46:01 437.505
AIST 2 30 Aug 13:39:55 13:43:44 35° 316° (NW) 13:47:34 435.215
ITAMSAT 1 30 Aug 14:02:19 14:06:05 21° 59° (ENE) 14:09:51 435.822/435.867
AUBIESAT-1 30 Aug 14:07:41 14:10:46 21° 303° (WNW) 14:13:41 437.475
JAS-2 30 Aug 14:08:28 14:11:57 17° 273° (W) 14:15:36 435.910
Cosmos 2499 30 Aug 14:09:10 14:16:25 38° 290° (WNW) 14:23:15 435.465 / 435.565
UKube-1 30 Aug 14:09:52 14:14:11 62° 287° (WNW) 14:18:27 .
ISS 30 Aug 14:11:44 14:15:01 70° 210° (SSW) 14:18:17 145.825
O/OREOS (USA 219) 30 Aug 14:12:16 14:16:44 70° 112° (ESE) 14:21:16 437.305
Gurwin Techsat 1B 30 Aug 14:14:07 14:19:24 71° 73° (ENE) 14:24:43 435.225
M-CUBED/EXP-1 PRIME 30 Aug 14:16:29 14:19:01 16° 306° (NW) 14:21:26 437.505
AISAT 30 Aug 14:17:45 14:21:36 29° 294° (WNW) 14:25:26 437.250
Oscar 19 30 Aug 14:19:15 14:24:17 52° 260° (W) 14:29:23 437.125/150
AO-85 30 Aug 14:19:21 14:23:36 57° 238° (WSW) 14:27:31 145.980
ESTCUBE 1 30 Aug 14:22:43 14:25:41 17° 299° (WNW) 14:28:38 437.505/2401.250
